Погода в Челябинске

Погода в Челябинске : погода сейчас, прогноз погоды и архив. Всё, что Вы хотите узнать о погоде в Челябинске!

Хотите узнать прогноз погоды в Челябинске? Тогда Вам сюда: Погода в Челябинске

Поиск расширенной информации на нашем сайте:

Другие новости

Новости СМИ2

Главная страница сайта

Новости сайта

03.07.2017

Напоминаем, что на нашем специализированном сайте Метеоцентр.Азия вы можете получить высокодетализированные автоматические прогнозы погоды по пунктам России, СНГ и мира в авиационном формате (включающие направление и скорость ветра, видимость, явления погоды, количество и форму облачности, нижнюю и верхнюю границу облачности).

Рекомендуем: лучшие строительные порталы Москвы

Погода в Челябинске - сегодня

Время (UTC), дата Ветер
(°,м/с) 
Видим.   Явления Облачность Т
(°С)
Тd
(°С)
f(%) Тe
(°С)
Pmin
(гПа)
dP
(гПа)
Po
(мм)
O2
(г/м3)
Тmin Tmax R s Состояние
почвы
06 15.10.18 030 (СВ) 10 км  в посл. час ливневой снег  8/8 300 м кучево-дожд. 
[Cb calv]
+2 -4 64 +1  1020  1.6  743  298           
09 15.10.18 020 (С) 10 км    9/9 300 м кучево-дожд. 
[Cb calv]
+1.6 -5.2 61 +1  1020.9  0.9  744  298           
12 15.10.18 010 (С) 10 км    8/8 300 м кучево-дожд. 
[Cb calv]
+0.8 -5.8 61 +1  1022.2  1.1  744  300           
18 15.10.18 180 (Ю) 10 км    8/8 300 м кучево-дожд. 
[Cb calv]
-1.6 -5.9 72 -1  1024.2  0.4  746  303           
21 15.10.18 230 (ЮЗ) 10 км    8/8 300 м кучево-дожд. 
[Cb calv]
-1.3 -5.8 71 -1  1024.7  0.4  746  303           
00 16.10.18 220 (ЮЗ) 4000 м    8/8 300 м кучево-дожд. 
[Cb calv]
-2.7 -5 84 -2  1024.3  -0.4  746  304           
06 16.10.18 210 (ЮЗ) 10 км    10/10 300 м кучево-дожд. 
[Cb calv]
+1.2 -2.3 77 +1  1024.3  0.1  746  300           
09 16.10.18 210 (ЮЗ) 10 км    10/10 300 м кучево-дожд. 
[Cb calv]
+1.9 -3.6 67 1022.9  -1.3  745  298           
12 16.10.18 200 (Ю) 10 км    10/10 300 м кучево-дожд. 
[Cb calv]
+2.7 -3 66 +2  1021  -1.8  744  297           
18 16.10.18 200 (Ю) н/о    н/о 
+2.7 -2.3 70 +2               
21 16.10.18 230 (ЮЗ) 4000 м    10/10 300 м кучево-дожд. 
[Cb calv]
+3.3 -0.9 74 +3  1015.5  -1.7  740  295           
00 17.10.18 190 (Ю) 4000 м    10/10 300 м кучево-дожд. 
[Cb calv]
+3.9 +0.3 77 +5  1013.1  -2.2  738  293           
03 17.10.18 220 (ЮЗ) 10 км    10/10 300 м кучево-дожд. 
[Cb calv]
+4.9 +1.8 80 +5  1011.1  -1.8  737  291  +2.4        влажная 
06 17.10.18 200 (Ю) 10 км    10/10 300 м кучево-дожд. 
[Cb calv]
+8.6 +3.2 69 +9  1007  -3.6  734  286           
09 17.10.18 220 (ЮЗ) 10 км    10/10 300 м кучево-дожд. 
[Cb calv]
+10.7 +4.5 65 +11  1003.7  -3  732  283           
15 17.10.18 320 (СЗ) 7-11{18}  4000 м  {ливн. осадки}  8/8 300 м кучево-дожд. 
[Cb calv]
+5.5 -0.9 63 +3  1006.1  1.6  733  290    +11.7  0.3     
03 18.10.18 310 (СЗ) 6-14{14}  10 км    10/10 300 м кучево-дожд. 
[Cb calv]
+3.9 -2 65 +1  1011.1  0.2  737  293  +3        влажная 
18 18.10.18 330 (СЗ) 4000 м  {ливн. осадки}  10/10 300 м кучево-дожд. 
[Cb calv]
+1.9 -0.2 86 +1  1016.3  740  296           
21 18.10.18 320 (СЗ) 4000 м    10/10 300 м кучево-дожд. 
[Cb calv]
+2.4 -2.4 71 +2  1016.1  -0.2  740  296           
00 19.10.18 220 (ЮЗ) 4000 м    10/10 300 м кучево-дожд. 
[Cb calv]
+2 -2 75 +3  1015.6  -0.5  740  296           
03 19.10.18 210 (ЮЗ) 10 км  {ливн. осадки}  10/10 300 м кучево-дожд. 
[Cb calv]
+2.7 +0.3 84 +3  1013.9  -1.6  739  295  +0.9      влажная 
06 19.10.18 210 (ЮЗ) 10 км  {ливн. осадки}  10/10 300 м кучево-дожд. 
[Cb calv]
+4.2 +0.7 78 +5  1012.5  -1.2  738  293           
09 19.10.18 210 (ЮЗ) 10 км  {ливн. осадки}  10/10 300 м кучево-дожд. 
[Cb calv]
+4.9 +3.2 89 +6  1011.8  -0.6  737  291           
12 19.10.18 300 (СЗ) 10 км  {ливн. осадки}  8/8 300 м кучево-дожд. 
[Cb calv]
+8.2 +4.3 76 +8  1011.7  0.2  737  288           
15 19.10.18 тихо ()   4000 м    8/8 300 м кучево-дожд. 
[Cb calv]
+6.7 +4.4 85 +7          0.9     
Время (UTC), дата Ветер
(°,м/с) 
Видим.   Явления Облачность Т
(°С)
Тd
(°С)
f(%) Тe
(°С)
Pmin
(гПа)
dP
(гПа)
Po
(мм)
O2
(г/м3)
Тmin Tmax R s Состояние
почвы

Для получения пояснительной информации подведите курсор к названию столбца.

ПОГОДА в Челябинске - архив

Всё, что Вы хотите узнать о погоде в Челябинске - удобно и подробно!

Выберите нужную дату (начиная с 1 января 2015* года) и нажмите кнопку "Найти".
Будут отображены архивные сводки погоды по пункту Челябинск, начиная с указанной даты.


Отображать данные в формате CSV (для использования в таблицах Excel)


Внимание! Наш архив погоды предназначен исключительно для личного некоммерческого использования в познавательных целях. Если Вам необходимы официальные справки о состоянии погоды (для производственных, юридических, коммерческих и т.п. целей), обращайтесь в органы Росгидромета.

*Примечание: данная дата относится к архиву по метеостанциям СССР (Россия, СНГ, Балтия).
Архив по метеостанциям Зарубежной Европы и Азии (кроме Китая) хранится 10 дней, по другим регионам земного шара (Китай, Африка, Америка, Австралия, Океания) - 1 день.

Челябинск - район местоположения метеостанции


Название, широта, долгота, высота метеостанции:
Челябинск (город) 55.2°ш. 61.3°д. 237 м над ур. моря [Российская Федерация]

Дополнительная информация

В oтличие oт бoльшинства пoгoдных сайтoв мы публикуем пoдрoбную метеoинфoрмацию в детальнoм прoфессиoнальнoм фoрмате.

Характеристики температуры и влажнoсти вoздуха измеряются на высoте 2 м в тени вдали oт зданий и деревьев.
Скoрoсть ветра измеряется на высoте 10 м (на урoвне рoста челoвека скoрoсть ветра ниже в 1.5-2 раза). Если метеoстанция нахoдится в гoрoде или в лесу, тo скoрoсть ветра занижена на 2-4 м/с пo сравнению с oткрытым местoм. Скoрoсть ветра над акватoриями крупных рек и oзёр, а также на вершинах хoлмoв на 2-5 м/с выше, чем в oбычных услoвиях.
Атмoсфернoе давление в разных тoчках местнoсти мoжет значительнo oтличаться oт давления на метеoстанции, в зависимoсти oт услoвий рельефа (при пoдъёме на 10 м давление пoнижается примернo на 1 мм рт.ст.).